Time,TemperatureF,DewpointF,PressureIn,WindDirection,WindDirectionDegrees,WindSpeedMPH,WindSpeedGustMPH,Humidity,HourlyPrecipIn,Conditions,Clouds,dailyrainin,SoftwareType,DateUTC
2013-08-03 00:01:00,57.3,54.7,30.09,WNW,293,0.0,0.0,91,0.00,,,0.00,WUHU216HW,2013-08-03 04:01:00,
2013-08-03 00:02:00,57.3,54.7,30.09,West,270,0.0,0.0,91,0.00,,,0.00,WUHU216HW,2013-08-03 04:02:00,
2013-08-03 00:07:00,57.2,54.4,30.09,West,270,0.0,0.0,91,0.00,,,0.00,WUHU216HW,2013-08-03 04:07:00,
2013-08-03 00:12:00,57.0,54.4,30.09,WNW,293,0.0,0.0,91,0.00,,,0.00,WUHU216HW,2013-08-03 04:12:00,
2013-08-03 00:17:00,56.8,54.2,30.09,West,270,0.0,0.0,91,0.00,,,0.00,WUHU216HW,2013-08-03 04:17:00,
2013-08-03 00:22:00,56.8,54.2,30.09,WNW,293,0.0,0.0,91,0.00,,,0.00,WUHU216HW,2013-08-03 04:22:00,
2013-08-03 00:27:00,56.8,54.2,30.09,West,270,0.0,0.0,91,0.00,,,0.00,WUHU216HW,2013-08-03 04:27:00,
2013-08-03 00:33:00,56.8,54.2,30.10,WNW,293,0.0,0.0,91,0.00,,,0.00,WUHU216HW,2013-08-03 04:33:00,
2013-08-03 00:38:00,56.8,54.2,30.09,NW,315,0.0,0.0,91,0.00,,,0.00,WUHU216HW,2013-08-03 04:38:00,
2013-08-03 00:43:00,56.8,54.2,30.10,NW,315,0.0,0.0,91,0.00,,,0.00,WUHU216HW,2013-08-03 04:43:00,
2013-08-03 00:48:00,56.4,53.8,30.10,NW,315,0.0,0.0,91,0.00,,,0.00,WUHU216HW,2013-08-03 04:48:00,
2013-08-03 00:53:00,56.4,54.1,30.10,NW,315,0.0,0.0,91,0.00,,,0.00,WUHU216HW,2013-08-03 04:53:00,
2013-08-03 00:58:00,56.3,53.9,30.09,NW,315,0.0,0.0,92,0.00,,,0.00,WUHU216HW,2013-08-03 04:58:00,
2013-08-03 01:03:00,56.3,53.9,30.09,WSW,248,0.0,0.0,92,0.00,,,0.00,WUHU216HW,2013-08-03 05:03:00,
2013-08-03 01:08:00,56.1,53.8,30.09,West,270,0.0,0.0,92,0.00,,,0.00,WUHU216HW,2013-08-03 05:08:00,
2013-08-03 01:13:00,55.9,53.6,30.10,West,270,0.0,0.0,92,0.00,,,0.00,WUHU216HW,2013-08-03 05:13:00,
2013-08-03 01:18:00,55.9,53.6,30.10,West,270,0.0,0.0,92,0.00,,,0.00,WUHU216HW,2013-08-03 05:18:00,
2013-08-03 01:23:00,55.7,53.4,30.10,NW,315,0.0,0.0,92,0.00,,,0.00,WUHU216HW,2013-08-03 05:23:00,
2013-08-03 01:28:00,55.5,53.2,30.10,WNW,293,0.0,0.0,92,0.00,,,0.00,WUHU216HW,2013-08-03 05:28:00,
2013-08-03 01:33:00,55.2,52.6,30.10,WNW,293,0.0,0.0,91,0.00,,,0.00,WUHU216HW,2013-08-03 05:33:00,
2013-08-03 01:38:00,55.2,52.9,30.09,West,270,0.0,0.0,92,0.00,,,0.00,WUHU216HW,2013-08-03 05:38:00,
2013-08-03 01:44:00,55.2,52.6,30.10,West,270,0.0,0.0,91,0.00,,,0.00,WUHU216HW,2013-08-03 05:44:00,
2013-08-03 01:49:00,55.0,52.4,30.10,West,270,0.0,0.0,91,0.00,,,0.00,WUHU216HW,2013-08-03 05:49:00,
2013-08-03 01:54:00,54.8,52.2,30.09,West,270,0.0,0.0,91,0.00,,,0.00,WUHU216HW,2013-08-03 05:54:00,
2013-08-03 01:59:00,54.6,52.0,30.10,West,270,0.0,0.0,91,0.00,,,0.00,WUHU216HW,2013-08-03 05:59:00,
2013-08-03 02:04:00,54.5,51.9,30.10,West,270,0.0,0.0,91,0.00,,,0.00,WUHU216HW,2013-08-03 06:04:00,
2013-08-03 02:09:00,54.5,51.9,30.10,West,270,0.0,0.0,91,0.00,,,0.00,WUHU216HW,2013-08-03 06:09:00,
2013-08-03 02:14:00,54.3,51.7,30.11,West,270,0.0,0.0,91,0.00,,,0.00,WUHU216HW,2013-08-03 06:14:00,
2013-08-03 02:19:00,54.1,51.8,30.11,West,270,0.0,0.0,92,0.00,,,0.00,WUHU216HW,2013-08-03 06:19:00,
2013-08-03 02:24:00,53.9,51.6,30.11,West,270,0.0,0.0,92,0.00,,,0.00,WUHU216HW,2013-08-03 06:24:00,
2013-08-03 02:29:00,53.9,51.6,30.11,WSW,248,0.0,0.0,92,0.00,,,0.00,WUHU216HW,2013-08-03 06:29:00,
2013-08-03 02:34:00,53.7,51.4,30.10,West,270,0.0,0.0,92,0.00,,,0.00,WUHU216HW,2013-08-03 06:34:00,
2013-08-03 02:39:00,53.7,51.2,30.10,West,270,0.0,0.0,92,0.00,,,0.00,WUHU216HW,2013-08-03 06:39:00,
2013-08-03 02:45:00,53.4,51.1,30.11,WSW,248,0.0,0.0,92,0.00,,,0.00,WUHU216HW,2013-08-03 06:45:00,
2013-08-03 02:50:00,53.4,51.1,30.11,WSW,248,0.0,0.0,92,0.00,,,0.00,WUHU216HW,2013-08-03 06:50:00,
2013-08-03 02:55:00,53.4,51.1,30.11,WSW,248,0.0,0.0,92,0.00,,,0.00,WUHU216HW,2013-08-03 06:55:00,
2013-08-03 03:00:00,53.4,51.1,30.11,WSW,248,0.0,0.0,92,0.00,,,0.00,WUHU216HW,2013-08-03 07:00:00,
2013-08-03 03:05:00,53.4,51.1,30.12,WSW,248,0.0,0.0,92,0.00,,,0.00,WUHU216HW,2013-08-03 07:05:00,
2013-08-03 03:10:00,53.4,51.1,30.11,WSW,248,0.0,0.0,92,0.00,,,0.00,WUHU216HW,2013-08-03 07:10:00,
2013-08-03 03:15:00,53.2,50.9,30.12,WSW,248,0.0,0.0,92,0.00,,,0.00,WUHU216HW,2013-08-03 07:15:00,
2013-08-03 03:20:00,53.2,50.9,30.12,West,270,0.0,0.0,92,0.00,,,0.00,WUHU216HW,2013-08-03 07:20:00,
2013-08-03 03:25:00,53.2,50.9,30.12,WSW,248,0.0,0.0,92,0.00,,,0.00,WUHU216HW,2013-08-03 07:25:00,
2013-08-03 03:31:00,53.2,50.9,30.12,West,270,0.0,0.0,92,0.00,,,0.00,WUHU216HW,2013-08-03 07:31:00,
2013-08-03 03:36:00,53.0,50.7,30.12,West,270,0.0,0.0,92,0.00,,,0.00,WUHU216HW,2013-08-03 07:36:00,
2013-08-03 03:41:00,52.8,50.5,30.12,WSW,248,0.0,0.0,92,0.00,,,0.00,WUHU216HW,2013-08-03 07:41:00,
2013-08-03 03:46:00,52.7,50.3,30.12,West,270,0.0,0.0,92,0.00,,,0.00,WUHU216HW,2013-08-03 07:46:00,
2013-08-03 03:51:00,52.5,50.2,30.12,West,270,0.0,0.0,92,0.00,,,0.00,WUHU216HW,2013-08-03 07:51:00,
2013-08-03 03:56:00,52.5,50.2,30.12,West,270,0.0,0.0,92,0.00,,,0.00,WUHU216HW,2013-08-03 07:56:00,
2013-08-03 04:01:00,52.3,50.0,30.12,West,270,0.0,0.0,92,0.00,,,0.00,WUHU216HW,2013-08-03 08:01:00,
2013-08-03 04:06:00,52.3,50.0,30.12,West,270,0.0,0.0,92,0.00,,,0.00,WUHU216HW,2013-08-03 08:06:00,
2013-08-03 04:11:00,52.3,50.0,30.12,West,270,0.0,0.0,92,0.00,,,0.00,WUHU216HW,2013-08-03 08:11:00,
2013-08-03 04:16:00,52.1,49.8,30.12,West,270,0.0,0.0,92,0.00,,,0.00,WUHU216HW,2013-08-03 08:16:00,
2013-08-03 04:21:00,52.1,49.8,30.12,WSW,248,0.0,0.0,92,0.00,,,0.00,WUHU216HW,2013-08-03 08:21:00,
2013-08-03 04:27:00,52.1,49.6,30.13,West,270,0.0,0.0,92,0.00,,,0.00,WUHU216HW,2013-08-03 08:27:00,
2013-08-03 04:32:00,51.8,49.4,30.12,WSW,248,0.0,0.0,92,0.00,,,0.00,WUHU216HW,2013-08-03 08:32:00,
2013-08-03 04:37:00,51.6,49.3,30.12,WSW,248,0.0,0.0,92,0.00,,,0.00,WUHU216HW,2013-08-03 08:37:00,
2013-08-03 04:42:00,51.4,49.1,30.13,West,270,0.0,0.0,92,0.00,,,0.00,WUHU216HW,2013-08-03 08:42:00,
2013-08-03 04:47:00,51.4,49.1,30.13,West,270,0.0,0.0,92,0.00,,,0.00,WUHU216HW,2013-08-03 08:47:00,
2013-08-03 04:52:00,51.2,48.9,30.13,West,270,0.0,0.0,92,0.00,,,0.00,WUHU216HW,2013-08-03 08:52:00,
2013-08-03 04:57:00,51.2,48.9,30.13,West,270,0.0,0.0,92,0.00,,,0.00,WUHU216HW,2013-08-03 08:57:00,
2013-08-03 05:02:00,51.0,48.7,30.12,West,270,0.0,0.0,92,0.00,,,0.00,WUHU216HW,2013-08-03 09:02:00,
2013-08-03 05:08:00,50.9,48.5,30.13,West,270,0.0,0.0,92,0.00,,,0.00,WUHU216HW,2013-08-03 09:08:00,
2013-08-03 05:13:00,50.7,48.4,30.12,West,270,0.0,0.0,92,0.00,,,0.00,WUHU216HW,2013-08-03 09:13:00,
2013-08-03 05:18:00,50.7,48.7,30.13,WSW,248,0.0,0.0,93,0.00,,,0.00,WUHU216HW,2013-08-03 09:18:00,
2013-08-03 05:23:00,51.2,48.9,30.13,WSW,248,0.0,0.0,92,0.00,,,0.00,WUHU216HW,2013-08-03 09:23:00,
2013-08-03 05:28:00,51.4,49.1,30.13,West,270,0.0,0.0,92,0.00,,,0.00,WUHU216HW,2013-08-03 09:28:00,
2013-08-03 05:33:00,51.4,49.1,30.13,West,270,0.0,0.0,92,0.00,,,0.00,WUHU216HW,2013-08-03 09:33:00,
2013-08-03 05:38:00,51.0,48.7,30.14,West,270,0.0,0.0,92,0.00,,,0.00,WUHU216HW,2013-08-03 09:38:00,
2013-08-03 05:43:00,51.2,48.9,30.14,West,270,0.0,0.0,92,0.00,,,0.00,WUHU216HW,2013-08-03 09:43:00,
2013-08-03 05:48:00,51.0,49.0,30.14,West,270,0.0,0.0,93,0.00,,,0.00,WUHU216HW,2013-08-03 09:48:00,
2013-08-03 05:53:00,51.0,49.0,30.14,West,270,0.0,0.0,93,0.00,,,0.00,WUHU216HW,2013-08-03 09:53:00,
2013-08-03 05:58:00,50.9,48.8,30.14,WSW,248,0.0,0.0,93,0.00,,,0.00,WUHU216HW,2013-08-03 09:58:00,
2013-08-03 06:03:00,50.7,48.7,30.15,West,270,0.0,0.0,93,0.00,,,0.00,WUHU216HW,2013-08-03 10:03:00,
2013-08-03 06:08:00,50.5,48.5,30.14,West,270,0.0,0.0,93,0.00,,,0.00,WUHU216HW,2013-08-03 10:08:00,
2013-08-03 06:13:00,50.3,48.3,30.14,West,270,0.0,0.0,93,0.00,,,0.00,WUHU216HW,2013-08-03 10:13:00,
2013-08-03 06:18:00,50.3,48.3,30.14,West,270,0.0,0.0,93,0.00,,,0.00,WUHU216HW,2013-08-03 10:18:00,
2013-08-03 06:23:00,50.3,48.3,30.15,West,270,0.0,0.0,93,0.00,,,0.00,WUHU216HW,2013-08-03 10:23:00,
2013-08-03 06:29:00,50.5,48.5,30.15,West,270,0.0,0.0,93,0.00,,,0.00,WUHU216HW,2013-08-03 10:29:00,
2013-08-03 06:34:00,50.5,48.5,30.15,West,270,0.0,0.0,93,0.00,,,0.00,WUHU216HW,2013-08-03 10:34:00,
2013-08-03 06:39:00,50.7,48.7,30.15,West,270,0.0,0.0,93,0.00,,,0.00,WUHU216HW,2013-08-03 10:39:00,
2013-08-03 06:44:00,50.7,48.7,30.14,West,270,0.0,0.0,93,0.00,,,0.00,WUHU216HW,2013-08-03 10:44:00,
2013-08-03 06:49:00,51.0,49.0,30.15,West,270,0.0,0.0,93,0.00,,,0.00,WUHU216HW,2013-08-03 10:49:00,
2013-08-03 06:55:00,51.6,49.6,30.15,NW,315,0.0,0.0,93,0.00,,,0.00,WUHU216HW,2013-08-03 10:55:00,
2013-08-03 07:00:00,51.8,49.7,30.14,West,270,0.0,0.0,93,0.00,,,0.00,WUHU216HW,2013-08-03 11:00:00,
2013-08-03 07:05:00,52.1,50.1,30.15,West,270,0.0,0.0,93,0.00,,,0.00,WUHU216HW,2013-08-03 11:05:00,
2013-08-03 07:10:00,52.7,50.9,30.15,West,270,0.0,0.0,94,0.00,,,0.00,WUHU216HW,2013-08-03 11:10:00,
2013-08-03 07:15:00,53.2,51.5,30.15,WNW,293,0.0,0.0,94,0.00,,,0.00,WUHU216HW,2013-08-03 11:15:00,
2013-08-03 07:20:00,53.4,51.6,30.15,WNW,293,0.0,0.0,94,0.00,,,0.00,WUHU216HW,2013-08-03 11:20:00,
2013-08-03 07:25:00,53.7,52.0,30.15,NW,315,0.0,0.0,94,0.00,,,0.00,WUHU216HW,2013-08-03 11:25:00,
2013-08-03 07:30:00,54.1,52.4,30.15,SSW,203,0.0,0.0,94,0.00,,,0.00,WUHU216HW,2013-08-03 11:30:00,
2013-08-03 07:35:00,54.5,52.7,30.15,West,270,0.0,0.0,94,0.00,,,0.00,WUHU216HW,2013-08-03 11:35:00,
2013-08-03 07:40:00,55.0,53.3,30.15,NW,315,0.0,0.0,94,0.00,,,0.00,WUHU216HW,2013-08-03 11:40:00,
2013-08-03 07:45:00,55.2,53.4,30.15,WSW,248,0.0,0.0,94,0.00,,,0.00,WUHU216HW,2013-08-03 11:45:00,
2013-08-03 07:50:00,56.1,54.3,30.15,West,270,0.0,0.0,94,0.00,,,0.00,WUHU216HW,2013-08-03 11:50:00,
2013-08-03 07:55:00,56.4,54.7,30.14,WNW,293,0.0,0.0,94,0.00,,,0.00,WUHU216HW,2013-08-03 11:55:00,
2013-08-03 08:00:00,56.8,55.1,30.14,West,270,0.0,0.0,94,0.00,,,0.00,WUHU216HW,2013-08-03 12:00:00,
2013-08-03 08:05:00,57.3,55.6,30.14,West,270,0.0,0.0,94,0.00,,,0.00,WUHU216HW,2013-08-03 12:05:00,
2013-08-03 08:11:00,57.7,56.0,30.15,WNW,293,0.0,0.0,94,0.00,,,0.00,WUHU216HW,2013-08-03 12:11:00,
2013-08-03 08:15:00,58.2,56.5,30.14,NW,315,0.0,3.5,94,0.00,,,0.00,WUHU216HW,2013-08-03 12:15:00,
2013-08-03 08:21:00,58.8,57.0,30.14,WSW,248,0.0,3.5,94,0.00,,,0.00,WUHU216HW,2013-08-03 12:21:00,
2013-08-03 08:26:00,59.3,57.6,30.15,SSE,158,0.0,0.0,94,0.00,,,0.00,WUHU216HW,2013-08-03 12:26:00,
2013-08-03 08:31:00,59.9,58.1,30.15,SSW,203,0.0,0.0,94,0.00,,,0.00,WUHU216HW,2013-08-03 12:31:00,
2013-08-03 08:36:00,60.6,58.6,30.15,WSW,248,0.0,0.0,93,0.00,,,0.00,WUHU216HW,2013-08-03 12:36:00,
2013-08-03 08:41:00,60.9,58.9,30.15,WNW,293,0.0,0.0,93,0.00,,,0.00,WUHU216HW,2013-08-03 12:41:00,
2013-08-03 08:46:00,61.5,58.9,30.14,North,0,0.0,1.5,91,0.00,,,0.00,WUHU216HW,2013-08-03 12:46:00,
2013-08-03 08:51:00,62.2,59.3,30.15,NNW,338,2.0,2.0,90,0.00,,,0.00,WUHU216HW,2013-08-03 12:51:00,
2013-08-03 08:56:00,62.9,59.3,30.16,WSW,248,0.0,2.0,88,0.00,,,0.00,WUHU216HW,2013-08-03 12:56:00,
2013-08-03 09:02:00,63.6,59.4,30.16,North,0,0.0,0.0,86,0.00,,,0.00,WUHU216HW,2013-08-03 13:02:00,
2013-08-03 09:07:00,64.4,59.8,30.16,WNW,293,0.0,0.0,85,0.00,,,0.00,WUHU216HW,2013-08-03 13:07:00,
2013-08-03 09:12:00,65.1,59.4,30.17,SSE,158,0.0,0.0,82,0.00,,,0.00,WUHU216HW,2013-08-03 13:12:00,
2013-08-03 09:17:00,65.8,60.1,30.17,West,270,0.0,1.3,82,0.00,,,0.00,WUHU216HW,2013-08-03 13:17:00,
2013-08-03 09:22:00,66.3,60.4,30.17,WNW,293,0.0,1.3,81,0.00,,,0.00,WUHU216HW,2013-08-03 13:22:00,
2013-08-03 09:27:00,66.9,60.2,30.17,WSW,248,1.5,1.5,79,0.00,,,0.00,WUHU216HW,2013-08-03 13:27:00,
2013-08-03 09:32:00,67.2,60.6,30.17,NW,315,0.0,1.5,79,0.00,,,0.00,WUHU216HW,2013-08-03 13:32:00,
2013-08-03 09:37:00,67.8,61.1,30.17,NNW,338,0.0,1.5,79,0.00,,,0.00,WUHU216HW,2013-08-03 13:37:00,
2013-08-03 09:42:00,68.7,60.9,30.17,NW,315,0.0,2.0,77,0.00,,,0.00,WUHU216HW,2013-08-03 13:42:00,
2013-08-03 09:47:00,69.2,60.9,30.17,ENE,68,0.0,2.0,75,0.00,,,0.00,WUHU216HW,2013-08-03 13:47:00,
2013-08-03 09:52:00,69.6,60.8,30.17,WNW,293,0.0,0.0,74,0.00,,,0.00,WUHU216HW,2013-08-03 13:52:00,
2013-08-03 09:57:00,70.5,61.3,30.17,ENE,68,0.0,2.2,73,0.00,,,0.00,WUHU216HW,2013-08-03 13:57:00,
2013-08-03 10:02:00,71.7,61.8,30.18,WNW,293,0.0,2.2,71,0.00,,,0.00,WUHU216HW,2013-08-03 14:02:00,
2013-08-03 10:07:00,72.3,61.6,30.17,WNW,293,0.0,6.7,69,0.00,,,0.00,WUHU216HW,2013-08-03 14:07:00,
2013-08-03 10:12:00,72.8,61.7,30.18,SW,225,9.1,9.1,68,0.00,,,0.00,WUHU216HW,2013-08-03 14:12:00,
2013-08-03 10:17:00,73.0,60.9,30.18,WNW,293,0.0,9.1,66,0.00,,,0.00,WUHU216HW,2013-08-03 14:17:00,
2013-08-03 10:22:00,74.1,60.6,30.18,NNW,338,1.3,1.3,63,0.00,,,0.00,WUHU216HW,2013-08-03 14:22:00,
2013-08-03 10:27:00,74.8,61.3,30.18,SSE,158,0.0,1.3,63,0.00,,,0.00,WUHU216HW,2013-08-03 14:27:00,
2013-08-03 10:33:00,75.7,61.7,30.18,West,270,0.0,5.3,62,0.00,,,0.00,WUHU216HW,2013-08-03 14:33:00,
2013-08-03 10:37:00,77.5,61.5,30.17,WSW,248,0.0,5.3,58,0.00,,,0.00,WUHU216HW,2013-08-03 14:37:00,
2013-08-03 10:43:00,78.4,61.9,30.18,NNW,338,4.4,5.3,57,0.00,,,0.00,WUHU216HW,2013-08-03 14:43:00,
2013-08-03 10:48:00,78.9,61.9,30.17,NE,45,1.3,4.4,56,0.00,,,0.00,WUHU216HW,2013-08-03 14:48:00,
2013-08-03 10:53:00,79.3,61.2,30.17,NNW,338,2.2,2.2,54,0.00,,,0.00,WUHU216HW,2013-08-03 14:53:00,
2013-08-03 10:58:00,79.8,61.1,30.17,WSW,248,0.0,2.2,52,0.00,,,0.00,WUHU216HW,2013-08-03 14:58:00,
2013-08-03 11:03:00,80.6,61.3,30.17,WSW,248,0.0,0.0,52,0.00,,,0.00,WUHU216HW,2013-08-03 15:03:00,
2013-08-03 11:08:00,81.3,61.4,30.18,East,90,2.0,2.0,51,0.00,,,0.00,WUHU216HW,2013-08-03 15:08:00,
2013-08-03 11:13:00,82.5,61.4,30.17,SSE,158,0.0,2.0,49,0.00,,,0.00,WUHU216HW,2013-08-03 15:13:00,
2013-08-03 11:18:00,84.0,62.2,30.17,NE,45,0.0,0.0,48,0.00,,,0.00,WUHU216HW,2013-08-03 15:18:00,
2013-08-03 11:24:00,84.2,61.7,30.18,NE,45,0.0,0.0,47,0.00,,,0.00,WUHU216HW,2013-08-03 15:24:00,
2013-08-03 11:29:00,83.3,61.0,30.17,West,270,0.0,0.0,47,0.00,,,0.00,WUHU216HW,2013-08-03 15:29:00,
2013-08-03 11:34:00,84.5,60.8,30.18,North,0,0.0,5.3,45,0.00,,,0.00,WUHU216HW,2013-08-03 15:34:00,
2013-08-03 11:39:00,84.5,60.2,30.18,ENE,68,0.0,5.3,44,0.00,,,0.00,WUHU216HW,2013-08-03 15:39:00,
2013-08-03 11:44:00,84.9,60.7,30.18,NW,315,0.0,0.0,43,0.00,,,0.00,WUHU216HW,2013-08-03 15:44:00,
2013-08-03 11:49:00,85.6,60.5,30.18,NNW,338,0.0,0.0,43,0.00,,,0.00,WUHU216HW,2013-08-03 15:49:00,
2013-08-03 11:54:00,82.7,58.5,30.18,NNW,338,4.2,6.4,44,0.00,,,0.00,WUHU216HW,2013-08-03 15:54:00,
2013-08-03 11:59:00,84.3,59.4,30.18,West,270,2.2,6.4,43,0.00,,,0.00,WUHU216HW,2013-08-03 15:59:00,
2013-08-03 12:04:00,87.0,60.6,30.18,SSW,203,5.1,5.1,41,0.00,,,0.00,WUHU216HW,2013-08-03 16:04:00,
2013-08-03 12:09:00,88.3,59.4,30.18,NW,315,0.0,5.1,38,0.00,,,0.00,WUHU216HW,2013-08-03 16:09:00,
2013-08-03 12:14:00,86.9,59.0,30.18,WNW,293,0.0,5.1,39,0.00,,,0.00,WUHU216HW,2013-08-03 16:14:00,
2013-08-03 12:20:00,87.6,61.0,30.18,East,90,0.0,2.2,41,0.00,,,0.00,WUHU216HW,2013-08-03 16:20:00,
2013-08-03 12:25:00,85.1,57.3,30.17,North,0,5.3,5.3,39,0.00,,,0.00,WUHU216HW,2013-08-03 16:25:00,
2013-08-03 12:30:00,85.2,59.6,30.17,NW,315,0.0,5.3,42,0.00,,,0.00,WUHU216HW,2013-08-03 16:30:00,
2013-08-03 12:35:00,87.8,60.6,30.17,NNE,23,3.5,5.3,40,0.00,,,0.00,WUHU216HW,2013-08-03 16:35:00,
2013-08-03 12:40:00,91.0,60.9,30.17,NW,315,0.0,3.5,37,0.00,,,0.00,WUHU216HW,2013-08-03 16:40:00,
2013-08-03 12:45:00,92.4,61.4,30.17,West,270,3.8,3.8,36,0.00,,,0.00,WUHU216HW,2013-08-03 16:45:00,
2013-08-03 12:50:00,92.3,60.4,30.17,WNW,293,0.0,5.1,35,0.00,,,0.00,WUHU216HW,2013-08-03 16:50:00,
2013-08-03 12:55:00,90.6,59.8,30.17,South,180,0.0,5.1,36,0.00,,,0.00,WUHU216HW,2013-08-03 16:55:00,
2013-08-03 13:00:00,91.4,59.7,30.17,NW,315,4.2,4.2,35,0.00,,,0.00,WUHU216HW,2013-08-03 17:00:00,
2013-08-03 13:05:00,90.6,59.0,30.17,NW,315,0.0,7.3,35,0.00,,,0.00,WUHU216HW,2013-08-03 17:05:00,
2013-08-03 13:10:00,88.3,57.8,30.17,West,270,0.0,7.3,36,0.00,,,0.00,WUHU216HW,2013-08-03 17:10:00,
2013-08-03 13:15:00,85.6,58.0,30.17,NNE,23,0.0,3.1,39,0.00,,,0.00,WUHU216HW,2013-08-03 17:15:00,
2013-08-03 13:20:00,88.5,57.9,30.17,NW,315,0.0,3.1,36,0.00,,,0.00,WUHU216HW,2013-08-03 17:20:00,
2013-08-03 13:25:00,90.3,58.7,30.17,ENE,68,0.0,0.0,35,0.00,,,0.00,WUHU216HW,2013-08-03 17:25:00,
2013-08-03 13:30:00,91.0,60.1,30.17,WNW,293,0.0,8.7,36,0.00,,,0.00,WUHU216HW,2013-08-03 17:30:00,
2013-08-03 13:36:00,91.9,59.3,30.17,WSW,248,4.4,8.7,34,0.00,,,0.00,WUHU216HW,2013-08-03 17:36:00,
2013-08-03 13:41:00,90.8,59.2,30.17,WNW,293,0.0,4.4,35,0.00,,,0.00,WUHU216HW,2013-08-03 17:41:00,
2013-08-03 13:46:00,88.3,57.8,30.17,NW,315,0.0,4.4,36,0.00,,,0.00,WUHU216HW,2013-08-03 17:46:00,
2013-08-03 13:50:00,85.8,57.2,30.17,North,0,0.0,3.1,38,0.00,,,0.00,WUHU216HW,2013-08-03 17:50:00,
2013-08-03 13:56:00,85.2,58.3,30.18,NNW,338,0.0,0.0,40,0.00,,,0.00,WUHU216HW,2013-08-03 17:56:00,
2013-08-03 14:01:00,88.8,59.0,30.17,NW,315,2.0,2.9,37,0.00,,,0.00,WUHU216HW,2013-08-03 18:01:00,
2013-08-03 14:06:00,90.3,59.5,30.17,NE,45,0.0,2.9,36,0.00,,,0.00,WUHU216HW,2013-08-03 18:06:00,
2013-08-03 14:11:00,88.1,57.6,30.17,NNW,338,0.0,2.0,36,0.00,,,0.00,WUHU216HW,2013-08-03 18:11:00,
2013-08-03 14:16:00,84.0,57.2,30.18,NW,315,0.0,2.9,40,0.00,,,0.00,WUHU216HW,2013-08-03 18:16:00,
2013-08-03 14:22:00,82.2,56.2,30.17,North,0,0.0,2.9,41,0.00,,,0.00,WUHU216HW,2013-08-03 18:22:00,
2013-08-03 14:27:00,87.9,60.7,30.17,WNW,293,0.0,0.0,40,0.00,,,0.00,WUHU216HW,2013-08-03 18:27:00,
2013-08-03 14:32:00,91.9,60.1,30.17,WSW,248,2.4,2.4,35,0.00,,,0.00,WUHU216HW,2013-08-03 18:32:00,
2013-08-03 14:37:00,94.2,60.6,30.18,NNW,338,0.0,2.4,33,0.00,,,0.00,WUHU216HW,2013-08-03 18:37:00,
2013-08-03 14:42:00,89.2,57.7,30.18,SW,225,0.0,7.3,35,0.00,,,0.00,WUHU216HW,2013-08-03 18:42:00,
2013-08-03 14:47:00,86.0,56.6,30.18,NW,315,0.0,7.3,37,0.00,,,0.00,WUHU216HW,2013-08-03 18:47:00,
2013-08-03 14:52:00,85.2,56.7,30.18,SE,135,1.7,3.1,38,0.00,,,0.00,WUHU216HW,2013-08-03 18:52:00,
2013-08-03 14:57:00,88.5,58.7,30.17,West,270,0.0,3.1,37,0.00,,,0.00,WUHU216HW,2013-08-03 18:57:00,
2013-08-03 15:02:00,88.3,57.8,30.17,NNW,338,0.0,0.0,36,0.00,,,0.00,WUHU216HW,2013-08-03 19:02:00,
2013-08-03 15:07:00,89.2,58.5,30.17,WSW,248,0.0,0.0,37,0.00,,,0.00,WUHU216HW,2013-08-03 19:07:00,
2013-08-03 15:12:00,86.7,57.2,30.17,North,0,2.4,2.4,37,0.00,,,0.00,WUHU216HW,2013-08-03 19:12:00,
2013-08-03 15:17:00,87.4,57.8,30.17,WSW,248,4.4,4.4,37,0.00,,,0.00,WUHU216HW,2013-08-03 19:17:00,
2013-08-03 15:22:00,88.8,58.2,30.17,NW,315,4.2,4.4,36,0.00,,,0.00,WUHU216HW,2013-08-03 19:22:00,
2013-08-03 15:27:00,89.2,57.7,30.16,SE,135,0.0,4.4,35,0.00,,,0.00,WUHU216HW,2013-08-03 19:27:00,
2013-08-03 15:32:00,91.9,59.3,30.16,West,270,2.4,4.4,34,0.00,,,0.00,WUHU216HW,2013-08-03 19:32:00,
2013-08-03 15:37:00,91.7,58.4,30.17,North,0,2.2,2.4,33,0.00,,,0.00,WUHU216HW,2013-08-03 19:37:00,
2013-08-03 15:42:00,91.9,60.1,30.17,South,180,2.9,2.9,35,0.00,,,0.00,WUHU216HW,2013-08-03 19:42:00,
2013-08-03 15:47:00,94.8,60.2,30.17,WNW,293,0.0,2.9,32,0.00,,,0.00,WUHU216HW,2013-08-03 19:47:00,
2013-08-03 15:52:00,94.2,59.7,30.17,East,90,0.0,6.7,32,0.00,,,0.00,WUHU216HW,2013-08-03 19:52:00,
2013-08-03 15:58:00,91.7,57.6,30.17,WNW,293,0.0,6.7,32,0.00,,,0.00,WUHU216HW,2013-08-03 19:58:00,
2013-08-03 16:03:00,88.3,57.8,30.17,NW,315,0.0,1.7,36,0.00,,,0.00,WUHU216HW,2013-08-03 20:03:00,
2013-08-03 16:07:00,89.4,57.9,30.17,NNE,23,0.0,4.0,35,0.00,,,0.00,WUHU216HW,2013-08-03 20:07:00,
2013-08-03 16:13:00,87.0,55.9,30.17,North,0,0.0,4.0,35,0.00,,,0.00,WUHU216HW,2013-08-03 20:13:00,
2013-08-03 16:18:00,83.4,55.1,30.17,NNE,23,4.2,6.0,38,0.00,,,0.00,WUHU216HW,2013-08-03 20:18:00,
2013-08-03 16:23:00,83.3,55.7,30.17,North,0,0.0,6.0,39,0.00,,,0.00,WUHU216HW,2013-08-03 20:23:00,
2013-08-03 16:28:00,85.6,57.0,30.17,NNW,338,0.6,4.2,38,0.00,,,0.00,WUHU216HW,2013-08-03 20:28:00,
2013-08-03 16:33:00,86.3,56.9,30.17,NNE,23,2.4,4.2,37,0.00,,,0.00,WUHU216HW,2013-08-03 20:33:00,
2013-08-03 16:38:00,86.5,56.2,30.18,North,0,0.0,3.1,36,0.00,,,0.00,WUHU216HW,2013-08-03 20:38:00,
2013-08-03 16:43:00,83.1,54.0,30.18,North,0,2.4,2.4,37,0.00,,,0.00,WUHU216HW,2013-08-03 20:43:00,
2013-08-03 16:48:00,83.8,56.2,30.17,West,270,0.0,3.3,39,0.00,,,0.00,WUHU216HW,2013-08-03 20:48:00,
2013-08-03 16:53:00,86.5,56.2,30.17,NW,315,0.0,3.3,36,0.00,,,0.00,WUHU216HW,2013-08-03 20:53:00,
2013-08-03 16:58:00,88.5,56.3,30.18,SSW,203,1.3,2.2,34,0.00,,,0.00,WUHU216HW,2013-08-03 20:58:00,
2013-08-03 17:03:00,87.6,55.5,30.18,WNW,293,0.0,2.2,34,0.00,,,0.00,WUHU216HW,2013-08-03 21:03:00,
2013-08-03 17:08:00,86.7,56.4,30.18,NNE,23,0.0,1.3,36,0.00,,,0.00,WUHU216HW,2013-08-03 21:08:00,
2013-08-03 17:14:00,85.8,55.6,30.18,NNW,338,0.0,0.0,36,0.00,,,0.00,WUHU216HW,2013-08-03 21:14:00,
2013-08-03 17:19:00,82.7,54.5,30.19,WNW,293,0.0,4.6,38,0.00,,,0.00,WUHU216HW,2013-08-03 21:19:00,
2013-08-03 17:24:00,79.1,53.4,30.19,NW,315,0.0,4.6,41,0.00,,,0.00,WUHU216HW,2013-08-03 21:24:00,
2013-08-03 17:29:00,76.6,53.6,30.19,SE,135,0.0,0.0,45,0.00,,,0.00,WUHU216HW,2013-08-03 21:29:00,
2013-08-03 17:34:00,75.3,53.1,30.19,ENE,68,0.0,2.0,46,0.00,,,0.00,WUHU216HW,2013-08-03 21:34:00,
2013-08-03 17:39:00,74.8,53.2,30.19,WNW,293,2.9,2.9,47,0.00,,,0.00,WUHU216HW,2013-08-03 21:39:00,
2013-08-03 17:44:00,74.6,53.0,30.19,WNW,293,0.0,11.4,47,0.00,,,0.00,WUHU216HW,2013-08-03 21:44:00,
2013-08-03 17:49:00,73.9,52.9,30.19,North,0,0.0,11.4,48,0.00,,,0.00,WUHU216HW,2013-08-03 21:49:00,
2013-08-03 17:54:00,74.3,54.5,30.19,West,270,0.0,0.0,50,0.00,,,0.00,WUHU216HW,2013-08-03 21:54:00,
2013-08-03 17:59:00,76.6,55.4,30.19,NNW,338,0.0,0.0,48,0.00,,,0.00,WUHU216HW,2013-08-03 21:59:00,
2013-08-03 18:04:00,78.9,55.7,30.19,WNW,293,0.6,2.4,45,0.00,,,0.00,WUHU216HW,2013-08-03 22:04:00,
2013-08-03 18:09:00,77.5,53.8,30.20,WNW,293,0.0,2.4,44,0.00,,,0.00,WUHU216HW,2013-08-03 22:09:00,
2013-08-03 18:14:00,76.4,54.0,30.20,WNW,293,0.0,2.6,46,0.00,,,0.00,WUHU216HW,2013-08-03 22:14:00,
2013-08-03 18:19:00,74.8,53.2,30.19,North,0,0.0,2.6,47,0.00,,,0.00,WUHU216HW,2013-08-03 22:19:00,
2013-08-03 18:24:00,73.9,52.9,30.20,WNW,293,3.5,3.5,48,0.00,,,0.00,WUHU216HW,2013-08-03 22:24:00,
2013-08-03 18:29:00,73.2,52.8,30.20,SSW,203,0.0,3.5,49,0.00,,,0.00,WUHU216HW,2013-08-03 22:29:00,
2013-08-03 18:34:00,71.7,53.1,30.20,North,0,0.0,3.5,52,0.00,,,0.00,WUHU216HW,2013-08-03 22:34:00,
2013-08-03 18:39:00,71.4,53.3,30.20,North,0,0.0,0.6,53,0.00,,,0.00,WUHU216HW,2013-08-03 22:39:00,
2013-08-03 18:45:00,71.4,53.3,30.20,West,270,0.0,0.0,53,0.00,,,0.00,WUHU216HW,2013-08-03 22:45:00,
2013-08-03 18:50:00,71.4,52.8,30.19,NE,45,0.0,0.0,52,0.00,,,0.00,WUHU216HW,2013-08-03 22:50:00,
2013-08-03 18:55:00,70.8,52.8,30.20,SSE,158,3.3,3.3,53,0.00,,,0.00,WUHU216HW,2013-08-03 22:55:00,
2013-08-03 19:00:00,70.1,52.7,30.20,NNW,338,0.0,3.3,54,0.00,,,0.00,WUHU216HW,2013-08-03 23:00:00,
2013-08-03 19:05:00,69.4,52.5,30.20,NNE,23,3.8,3.8,55,0.00,,,0.00,WUHU216HW,2013-08-03 23:05:00,
2013-08-03 19:10:00,69.4,52.5,30.20,North,0,0.0,3.8,55,0.00,,,0.00,WUHU216HW,2013-08-03 23:10:00,
2013-08-03 19:15:00,69.4,52.0,30.21,NNW,338,0.0,3.8,54,0.00,,,0.00,WUHU216HW,2013-08-03 23:15:00,
2013-08-03 19:20:00,68.5,51.6,30.21,North,0,0.0,0.0,55,0.00,,,0.00,WUHU216HW,2013-08-03 23:20:00,
2013-08-03 19:25:00,67.8,51.4,30.21,SSW,203,0.0,0.0,56,0.00,,,0.00,WUHU216HW,2013-08-03 23:25:00,
2013-08-03 19:30:00,67.6,51.8,30.21,WNW,293,0.0,0.0,57,0.00,,,0.00,WUHU216HW,2013-08-03 23:30:00,
2013-08-03 19:35:00,67.6,51.8,30.21,West,270,1.7,6.2,57,0.00,,,0.00,WUHU216HW,2013-08-03 23:35:00,
2013-08-03 19:40:00,66.9,51.6,30.21,NW,315,0.0,6.2,58,0.00,,,0.00,WUHU216HW,2013-08-03 23:40:00,
2013-08-03 19:45:00,66.7,51.4,30.21,NNW,338,0.0,0.0,58,0.00,,,0.00,WUHU216HW,2013-08-03 23:45:00,
2013-08-03 19:50:00,66.5,51.3,30.21,West,270,0.0,0.0,58,0.00,,,0.00,WUHU216HW,2013-08-03 23:50:00,
2013-08-03 19:55:00,66.3,51.6,30.21,WNW,293,0.0,0.0,59,0.00,,,0.00,WUHU216HW,2013-08-03 23:55:00,
2013-08-03 20:01:00,65.4,51.2,30.21,NW,315,0.0,0.0,60,0.00,,,0.00,WUHU216HW,2013-08-04 00:01:00,
2013-08-03 20:06:00,64.9,50.7,30.21,NNE,23,0.0,0.0,60,0.00,,,0.00,WUHU216HW,2013-08-04 00:06:00,
2013-08-03 20:11:00,64.5,51.2,30.21,West,270,0.0,0.0,62,0.00,,,0.00,WUHU216HW,2013-08-04 00:11:00,
2013-08-03 20:16:00,64.2,51.2,30.20,NW,315,0.0,0.0,63,0.00,,,0.00,WUHU216HW,2013-08-04 00:16:00,
2013-08-03 20:21:00,64.0,51.1,30.21,WNW,293,0.0,0.0,63,0.00,,,0.00,WUHU216HW,2013-08-04 00:21:00,
2013-08-03 20:26:00,63.5,50.8,30.21,North,0,0.0,0.0,64,0.00,,,0.00,WUHU216HW,2013-08-04 00:26:00,
2013-08-03 20:31:00,62.9,50.9,30.21,WSW,248,0.0,0.0,65,0.00,,,0.00,WUHU216HW,2013-08-04 00:31:00,
2013-08-03 20:36:00,62.4,50.4,30.21,West,270,0.0,0.0,65,0.00,,,0.00,WUHU216HW,2013-08-04 00:36:00,
2013-08-03 20:41:00,62.2,50.8,30.21,WNW,293,0.0,0.0,67,0.00,,,0.00,WUHU216HW,2013-08-04 00:41:00,
2013-08-03 20:46:00,61.5,50.4,30.21,North,0,0.0,0.0,67,0.00,,,0.00,WUHU216HW,2013-08-04 00:46:00,
2013-08-03 20:51:00,61.1,50.1,30.21,North,0,0.0,0.0,67,0.00,,,0.00,WUHU216HW,2013-08-04 00:51:00,
2013-08-03 20:56:00,60.9,50.8,30.22,North,0,0.0,0.0,68,0.00,,,0.00,WUHU216HW,2013-08-04 00:56:00,
2013-08-03 21:01:00,60.6,50.9,30.21,NW,315,0.0,0.0,70,0.00,,,0.00,WUHU216HW,2013-08-04 01:01:00,
2013-08-03 21:07:00,60.0,50.3,30.21,NNW,338,0.0,0.0,70,0.00,,,0.00,WUHU216HW,2013-08-04 01:07:00,
2013-08-03 21:12:00,59.5,49.8,30.22,NW,315,0.0,0.0,70,0.00,,,0.00,WUHU216HW,2013-08-04 01:12:00,
2013-08-03 21:17:00,59.1,49.8,30.21,NW,315,0.0,0.0,71,0.00,,,0.00,WUHU216HW,2013-08-04 01:17:00,
2013-08-03 21:22:00,58.8,49.8,30.22,NW,315,0.0,0.0,72,0.00,,,0.00,WUHU216HW,2013-08-04 01:22:00,
2013-08-03 21:27:00,58.4,49.4,30.22,East,90,0.0,0.0,72,0.00,,,0.00,WUHU216HW,2013-08-04 01:27:00,
2013-08-03 21:32:00,58.1,49.1,30.22,West,270,0.0,0.0,72,0.00,,,0.00,WUHU216HW,2013-08-04 01:32:00,
2013-08-03 21:37:00,57.7,49.1,30.22,NE,45,0.0,0.0,73,0.00,,,0.00,WUHU216HW,2013-08-04 01:37:00,
2013-08-03 21:42:00,57.3,49.1,30.22,North,0,0.0,0.0,74,0.00,,,0.00,WUHU216HW,2013-08-04 01:42:00,
2013-08-03 21:47:00,57.0,48.7,30.22,North,0,0.0,0.0,74,0.00,,,0.00,WUHU216HW,2013-08-04 01:47:00,
2013-08-03 21:52:00,56.8,48.9,30.23,NNW,338,0.0,0.0,75,0.00,,,0.00,WUHU216HW,2013-08-04 01:52:00,
2013-08-03 21:57:00,56.8,49.2,30.23,WNW,293,0.0,0.0,76,0.00,,,0.00,WUHU216HW,2013-08-04 01:57:00,
2013-08-03 22:02:00,56.8,49.2,30.23,NW,315,0.0,0.0,76,0.00,,,0.00,WUHU216HW,2013-08-04 02:02:00,
2013-08-03 22:07:00,56.4,48.9,30.23,SW,225,0.0,0.0,76,0.00,,,0.00,WUHU216HW,2013-08-04 02:07:00,
2013-08-03 22:12:00,56.3,49.1,30.23,West,270,0.0,0.0,77,0.00,,,0.00,WUHU216HW,2013-08-04 02:12:00,
2013-08-03 22:17:00,56.3,49.4,30.23,NW,315,0.0,0.0,78,0.00,,,0.00,WUHU216HW,2013-08-04 02:17:00,
2013-08-03 22:22:00,56.1,49.2,30.23,North,0,0.0,0.0,78,0.00,,,0.00,WUHU216HW,2013-08-04 02:22:00,
2013-08-03 22:27:00,56.1,49.6,30.23,WSW,248,0.0,0.0,79,0.00,,,0.00,WUHU216HW,2013-08-04 02:27:00,
2013-08-03 22:33:00,55.9,49.8,30.24,WSW,248,0.0,0.0,80,0.00,,,0.00,WUHU216HW,2013-08-04 02:33:00,
2013-08-03 22:38:00,55.7,49.6,30.24,WSW,248,0.0,0.0,80,0.00,,,0.00,WUHU216HW,2013-08-04 02:38:00,
2013-08-03 22:43:00,55.5,49.4,30.25,West,270,0.0,0.0,80,0.00,,,0.00,WUHU216HW,2013-08-04 02:43:00,
2013-08-03 22:48:00,55.4,49.6,30.24,West,270,0.0,0.0,81,0.00,,,0.00,WUHU216HW,2013-08-04 02:48:00,
2013-08-03 22:53:00,55.4,49.9,30.24,SW,225,0.0,0.0,82,0.00,,,0.00,WUHU216HW,2013-08-04 02:53:00,
2013-08-03 22:58:00,55.2,49.7,30.25,WNW,293,0.0,0.0,82,0.00,,,0.00,WUHU216HW,2013-08-04 02:58:00,
2013-08-03 23:03:00,55.2,50.0,30.25,SSW,203,0.0,0.0,83,0.00,,,0.00,WUHU216HW,2013-08-04 03:03:00,
2013-08-03 23:08:00,55.2,50.0,30.25,WNW,293,0.0,0.0,83,0.00,,,0.00,WUHU216HW,2013-08-04 03:08:00,
2013-08-03 23:13:00,55.0,49.9,30.25,WNW,293,0.0,0.0,83,0.00,,,0.00,WUHU216HW,2013-08-04 03:13:00,
2013-08-03 23:18:00,55.0,49.9,30.25,North,0,0.0,0.0,83,0.00,,,0.00,WUHU216HW,2013-08-04 03:18:00,
2013-08-03 23:23:00,55.5,50.7,30.25,West,270,0.0,0.0,84,0.00,,,0.00,WUHU216HW,2013-08-04 03:23:00,
2013-08-03 23:28:00,55.7,50.6,30.25,NW,315,0.0,0.0,83,0.00,,,0.00,WUHU216HW,2013-08-04 03:28:00,
2013-08-03 23:34:00,55.5,50.4,30.25,NW,315,0.0,0.0,83,0.00,,,0.00,WUHU216HW,2013-08-04 03:34:00,
2013-08-03 23:39:00,55.0,49.9,30.25,NW,315,0.0,0.0,83,0.00,,,0.00,WUHU216HW,2013-08-04 03:39:00,
2013-08-03 23:44:00,54.8,49.7,30.25,WNW,293,0.0,0.0,83,0.00,,,0.00,WUHU216HW,2013-08-04 03:44:00,
2013-08-03 23:49:00,54.5,49.4,30.25,WSW,248,0.0,0.0,83,0.00,,,0.00,WUHU216HW,2013-08-04 03:49:00,
2013-08-03 23:54:00,54.3,49.2,30.25,WSW,248,0.0,0.0,83,0.00,,,0.00,WUHU216HW,2013-08-04 03:54:00,
2013-08-03 23:59:00,53.9,48.9,30.25,WSW,248,0.0,0.0,83,0.00,,,0.00,WUHU216HW,2013-08-04 03:59:00,